When you browse on this site, cookies collect data to enhance your experience and personalize the content and advertising you see.
Visit our Privacy Policy to learn more. By continuing to use the site, you agree to this use of cookies and data.
  • în România
  • Lista ţărilor
  • Pe 7 zile
  • Temperatura apei
  • Hartă satelitară
  • Meteo pe hartă
  • Widget-uri
  • user-avatar
    Intrare

    Meteo pe oră la Yevlakh

    Astăzi, 22 Mai, Miercuri

    Timp Temperatura Precipitaţii Vânt Presiune Umiditate
    00:00 +18°C° 0 mm 3 m/s 765 mmHg 54%
    01:00 +18°C° 0 mm 2 m/s 764 mmHg 55%
    02:00 +17°C° 0 mm 2 m/s 764 mmHg 56%
    03:00 +17°C° 0 mm 2 m/s 764 mmHg 58%
    04:00 +17°C° 0 mm 2 m/s 764 mmHg 57%
    05:00 +18°C° 0 mm 1 m/s 764 mmHg 56%
    06:00 +19°C° 0 mm 1 m/s 764 mmHg 56%
    07:00 +20°C° 0 mm 1 m/s 763 mmHg 51%
    08:00 +20°C° 0 mm 2 m/s 763 mmHg 47%
    09:00 +23°C° 0 mm 2 m/s 762 mmHg 42%
    10:00 +24°C° 0 mm 2 m/s 762 mmHg 40%
    11:00 +25°C° 0 mm 2 m/s 761 mmHg 37%
    12:00 +26°C° 0 mm 2 m/s 761 mmHg 35%
    13:00 +27°C° 0 mm 2 m/s 760 mmHg 34%
    14:00 +28°C° 0 mm 2 m/s 760 mmHg 33%
    15:00 +28°C° 0 mm 2 m/s 759 mmHg 32%
    16:00 +28°C° 0 mm 1 m/s 759 mmHg 35%
    17:00 +28°C° 0 mm 1 m/s 759 mmHg 38%
    18:00 +26°C° 0 mm 0 m/s 759 mmHg 40%
    19:00 +26°C° 0 mm 1 m/s 760 mmHg 43%
    20:00 +25°C° 0 mm 1 m/s 760 mmHg 45%
    21:00 +24°C° 0 mm 2 m/s 760 mmHg 47%
    22:00 +23°C° 0 mm 2 m/s 760 mmHg 48%
    23:00 +21°C° 0 mm 2 m/s 760 mmHg 49%

    Mâine, 23 Mai, Joi

    Timp Temperatura Precipitaţii Vânt Presiune Umiditate
    00:00 +21°C° 0 mm 2 m/s 760 mmHg 49%
    01:00 +20°C° 0 mm 3 m/s 760 mmHg 49%
    02:00 +20°C° 0 mm 3 m/s 760 mmHg 48%
    03:00 +19°C° 0 mm 3 m/s 759 mmHg 48%
    04:00 +20°C° 0 mm 3 m/s 759 mmHg 50%
    05:00 +20°C° 0 mm 3 m/s 759 mmHg 52%
    06:00 +20°C° 0 mm 4 m/s 759 mmHg 54%
    07:00 +22°C° 0 mm 4 m/s 759 mmHg 50%
    08:00 +25°C° 0 mm 4 m/s 759 mmHg 47%
    09:00 +27°C° 0 mm 4 m/s 758 mmHg 43%
    10:00 +28°C° 0 mm 4 m/s 758 mmHg 39%
    11:00 +29°C° 0 mm 3 m/s 758 mmHg 35%
    12:00 +31°C° 0 mm 3 m/s 757 mmHg 30%
    13:00 +31°C° 0 mm 3 m/s 757 mmHg 31%
    14:00 +31°C° 0 mm 3 m/s 757 mmHg 31%
    15:00 +31°C° 0 mm 3 m/s 756 mmHg 32%
    16:00 +29°C° 0 mm 3 m/s 756 mmHg 38%
    17:00 +28°C° 0 mm 3 m/s 756 mmHg 44%
    18:00 +27°C° 0 mm 2 m/s 757 mmHg 50%
    19:00 +26°C° 0 mm 2 m/s 757 mmHg 52%
    20:00 +25°C° 0 mm 2 m/s 758 mmHg 55%
    21:00 +24°C° 0 mm 2 m/s 759 mmHg 57%
    22:00 +24°C° 0 mm 2 m/s 759 mmHg 59%
    23:00 +23°C° 0 mm 2 m/s 759 mmHg 61%

    Poimâine, 24 Mai, Vineri

    Timp Temperatura Precipitaţii Vânt Presiune Umiditate
    00:00 +21°C° 0 mm 2 m/s 759 mmHg 63%
    01:00 +21°C° 0 mm 2 m/s 759 mmHg 64%
    02:00 +21°C° 0 mm 1 m/s 759 mmHg 65%
    03:00 +19°C° 0 mm 0 m/s 759 mmHg 67%
    04:00 +21°C° 0 mm 1 m/s 759 mmHg 64%
    05:00 +21°C° 0 mm 2 m/s 759 mmHg 62%
    06:00 +21°C° 0 mm 2 m/s 759 mmHg 59%
    07:00 +24°C° 0 mm 3 m/s 759 mmHg 50%
    08:00 +26°C° 0 mm 4 m/s 759 mmHg 40%
    09:00 +27°C° 0 mm 5 m/s 759 mmHg 31%
    10:00 +28°C° 0 mm 5 m/s 759 mmHg 30%
    11:00 +30°C° 0 mm 4 m/s 758 mmHg 29%
    12:00 +32°C° 0 mm 4 m/s 758 mmHg 28%
    13:00 +31°C° 0 mm 3 m/s 758 mmHg 28%
    14:00 +33°C° 0 mm 3 m/s 757 mmHg 27%
    15:00 +32°C° 0 mm 2 m/s 757 mmHg 26%
    16:00 +32°C° 0 mm 2 m/s 757 mmHg 29%
    17:00 +31°C° 0 mm 2 m/s 758 mmHg 32%
    18:00 +31°C° 0 mm 2 m/s 758 mmHg 35%
    19:00 +29°C° 0 mm 2 m/s 758 mmHg 40%
    20:00 +28°C° 0 mm 1 m/s 759 mmHg 45%
    21:00 +26°C° 0 mm 1 m/s 760 mmHg 50%
    22:00 +26°C° 0 mm 2 m/s 760 mmHg 52%
    23:00 +25°C° 0 mm 3 m/s 760 mmHg 53%

    25 Mai, Sâmbătă

    Timp Temperatura Precipitaţii Vânt Presiune Umiditate
    00:00 +23°C° 0 mm 4 m/s 760 mmHg 54%
    01:00 +22°C° 0 mm 3 m/s 760 mmHg 55%
    02:00 +23°C° 0 mm 2 m/s 760 mmHg 56%
    03:00 +22°C° 0 mm 1 m/s 760 mmHg 56%
    04:00 +22°C° 0 mm 1 m/s 760 mmHg 57%
    05:00 +23°C° 0 mm 1 m/s 760 mmHg 57%
    06:00 +21°C° 0 mm 0 m/s 760 mmHg 58%
    07:00 +24°C° 0 mm 1 m/s 760 mmHg 54%
    08:00 +26°C° 0 mm 1 m/s 759 mmHg 50%
    09:00 +27°C° 0 mm 1 m/s 759 mmHg 47%
    10:00 +29°C° 0 mm 1 m/s 759 mmHg 43%
    11:00 +30°C° 0 mm 1 m/s 758 mmHg 39%
    12:00 +32°C° 0 mm 1 m/s 758 mmHg 35%
    13:00 +33°C° 0 mm 1 m/s 757 mmHg 34%
    14:00 +33°C° 0 mm 1 m/s 756 mmHg 33%
    15:00 +34°C° 0 mm 1 m/s 755 mmHg 31%
    16:00 +34°C° 0.1 mm 1 m/s 756 mmHg 35%
    17:00 +33°C° 0.1 mm 1 m/s 756 mmHg 39%
    18:00 +33°C° 0.1 mm 1 m/s 756 mmHg 43%
    19:00 +31°C° 0.6 mm 2 m/s 757 mmHg 45%
    20:00 +29°C° 0.6 mm 2 m/s 757 mmHg 48%
    21:00 +28°C° 0.6 mm 3 m/s 758 mmHg 50%
    22:00 +27°C° 0.4 mm 2 m/s 758 mmHg 52%
    23:00 +26°C° 0.4 mm 2 m/s 757 mmHg 55%

    26 Mai, Duminică

    Timp Temperatura Precipitaţii Vânt Presiune Umiditate
    00:00 +25°C° 0.4 mm 1 m/s 757 mmHg 58%
    01:00 +25°C° 0 mm 1 m/s 757 mmHg 61%
    02:00 +24°C° 0 mm 1 m/s 756 mmHg 64%
    03:00 +21°C° 0 mm 0 m/s 756 mmHg 67%
    04:00 +24°C° 0 mm 2 m/s 756 mmHg 65%
    05:00 +24°C° 0 mm 3 m/s 756 mmHg 63%
    06:00 +25°C° 0 mm 4 m/s 756 mmHg 61%
    07:00 +26°C° 0 mm 5 m/s 756 mmHg 54%
    08:00 +28°C° 0 mm 5 m/s 756 mmHg 47%
    09:00 +30°C° 0 mm 6 m/s 756 mmHg 40%
    10:00 +32°C° 0.1 mm 6 m/s 755 mmHg 37%
    11:00 +33°C° 0.1 mm 6 m/s 755 mmHg 34%
    12:00 +35°C° 0.1 mm 6 m/s 755 mmHg 31%
    13:00 +34°C° 0.9 mm 7 m/s 754 mmHg 33%
    14:00 +34°C° 0.9 mm 7 m/s 754 mmHg 34%
    15:00 +34°C° 0.9 mm 7 m/s 754 mmHg 36%
    16:00 +32°C° 2 mm 5 m/s 755 mmHg 43%
    17:00 +30°C° 2 mm 4 m/s 756 mmHg 49%
    18:00 +29°C° 2 mm 2 m/s 756 mmHg 55%
    19:00 +28°C° 0.6 mm 2 m/s 757 mmHg 58%
    20:00 +27°C° 0.6 mm 2 m/s 758 mmHg 60%
    21:00 +26°C° 0.6 mm 1 m/s 759 mmHg 63%
    22:00 +25°C° 0.1 mm 2 m/s 759 mmHg 63%
    23:00 +25°C° 0.1 mm 2 m/s 759 mmHg 63%

    27 Mai, Luni

    Timp Temperatura Precipitaţii Vânt Presiune Umiditate
    00:00 +24°C° 0.1 mm 2 m/s 759 mmHg 62%
    01:00 +24°C° 0 mm 3 m/s 759 mmHg 62%
    02:00 +22°C° 0 mm 3 m/s 759 mmHg 62%
    03:00 +21°C° 0 mm 4 m/s 760 mmHg 62%
    04:00 +22°C° 0 mm 4 m/s 760 mmHg 61%
    05:00 +22°C° 0 mm 3 m/s 760 mmHg 61%
    06:00 +22°C° 0 mm 3 m/s 761 mmHg 60%
    07:00 +25°C° 0 mm 3 m/s 761 mmHg 53%
    08:00 +26°C° 0 mm 3 m/s 761 mmHg 46%
    09:00 +28°C° 0 mm 3 m/s 761 mmHg 39%
    10:00 +29°C° 0 mm 2 m/s 761 mmHg 36%
    11:00 +30°C° 0 mm 2 m/s 760 mmHg 33%
    12:00 +31°C° 0 mm 1 m/s 760 mmHg 30%
    13:00 +32°C° 0 mm 2 m/s 760 mmHg 31%
    14:00 +32°C° 0 mm 2 m/s 760 mmHg 32%
    15:00 +34°C° 0 mm 2 m/s 760 mmHg 33%
    16:00 +32°C° 0 mm 2 m/s 760 mmHg 36%
    17:00 +32°C° 0 mm 2 m/s 760 mmHg 39%
    18:00 +32°C° 0 mm 2 m/s 760 mmHg 41%
    19:00 +30°C° 0 mm 3 m/s 761 mmHg 44%
    20:00 +29°C° 0 mm 4 m/s 762 mmHg 47%
    21:00 +27°C° 0 mm 6 m/s 762 mmHg 50%
    22:00 +26°C° 0 mm 5 m/s 762 mmHg 53%
    23:00 +25°C° 0 mm 4 m/s 762 mmHg 56%
    Arată mai mult